Regional Weather Roundup
Issued by NWS

Home | Current Version | Previous Version | Text Only | Print | Product List | Glossary On
Versions: 1 2 3 4 5 6 7 8 9 10 11 12 13 14 15 16 17 18 19 20 21 22 23 24 25 26 27 28 29 30 31 32 33 34 35 36 37 38 39 40 41 42 43 44 45 46 47 48 49 50
041
ASUS44 KBMX 252210
RWRAL

ALABAMA REGIONAL WEATHER ROUNDUP
NATIONAL WEATHER SERVICE BIRMINGHAM AL
400 PM CST SAT FEB 25 2017

NOTE: "FAIR" INDICATES FEW OR NO CLOUDS BELOW 12,000 FEET
WITH NO SIGNIFICANT WEATHER AND/OR OBSTRUCTIONS TO VISIBILITY.

THE REMARK "TC" DENOTES TEMPERATURE IN DEGREES CELSIUS.

ALZ001>011-014-016>018-020-252300-
NORTH ALABAMA

CITY           SKY/WX    TMP DP  RH WIND       PRES   REMARKS
MUSCLE SHOALS  SUNNY     51  20  29 NW12      30.07R
HUNTSVILLE     SUNNY     53  26  35 W16       30.03R
DECATUR        SUNNY     51  24  34 W14       30.05R
HALEYVILLE     FAIR      51  21  30 NW10G17   30.07R
GADSDEN        SUNNY     56  28  34 NW13      30.01R
$$

ALZ012-013-022-023-030>036-040>044-252300-
WEST CENTRAL ALABAMA

CITY           SKY/WX    TMP DP  RH WIND       PRES   REMARKS
TUSCALOOSA     SUNNY     57  22  25 NW12G18   30.06R
$$

ALZ015-024>027-033>036-040>044-252300-
CENTRAL ALABAMA

CITY           SKY/WX    TMP DP  RH WIND       PRES   REMARKS
BIRMINGHAM     SUNNY     58  21  24 W13       30.04R
MONTGOMERY     SUNNY     66  22  18 W20       29.98R
SHELBY CO ARPT SUNNY     60  23  24 W12       30.01R
MAXWELL AFB    SUNNY     64  26  23 NW13G22   29.98R
GREENVILLE     FAIR      65  22  19 W14G21    29.98R
$$

ALZ019-021-028-029-037-038-045>048-252300-
EAST CENTRAL ALABAMA

CITY           SKY/WX    TMP DP  RH WIND       PRES   REMARKS
ANNISTON       SUNNY     60  13  15 NW8       29.99R
ALEXANDER CITY SUNNY     61  20  20 W13G20    29.98R
AUBURN         SUNNY     63  23  21 NW17G26   29.95R
$$

ALZ051>064-252300-
SOUTHWEST ALABAMA

CITY           SKY/WX    TMP DP  RH WIND       PRES   REMARKS
MOBILE         MOSUNNY   69  27  20 NW13      30.02R
BROOKLEY FIELD MOSUNNY   71  26  18 NW15      30.02R
EVERGREEN      SUNNY     68  28  22 VRB6      30.00R
$$

ALZ049-050-065>069-252300-
SOUTHEAST ALABAMA

CITY           SKY/WX    TMP DP  RH WIND       PRES   REMARKS
DOTHAN         SUNNY     72  27  18 NW15      29.95R
OZARK          SUNNY     71  21  15 W14G21    29.93R
TROY           SUNNY     67  21  17 W13       29.97R
EUFAULA        FAIR      71  24  17 NW7       29.92R
$$




USA.gov is the U.S. government's official web portal to all federal, state and local government web resources and services.